Location: El Portezuelo
(28.4984°N, 16.3589°W)
Time: 17:40:54
(UTC+00:00)

Cosmos 2184 Rocket - Pass Details

Date: 20 January 2020
Orbit: 959 x 1002 km, 82.9° (Epoch: 18 February)

Event Time Altitude Azimuth Distance (km) Brightness Sun altitude
Exits shadow 06:12:58 12° 347° (NNW) 2,568 6.0 -22.9°
Maximum altitude 06:18:42 65° 267° (W) 1,063 3.9 -21.7°
Drops below altitude 10° 06:24:53 10° 187° (S) 2,729 6.4 -20.4°
Sets 06:27:25 0° 184° (S) 3,681 7.1 -19.8°
